User: anonymous   Login
Location: Indian Springs
(36.5700°N, 115.6700°W)
Time: 11:11:39
(UTC-07:00)
Language:

Cosmos 2278 Rocket - Orbit

View from above orbital plane
View from above orbital plane
View from above satellite
View from above satellite

Ground track
Ground track

The orbit data is extracted from the following two-line orbital elements,

1 23088U 94023B   15212.60494188  .00000093  00000-0  72999-4 0  9992
2 23088 070.9994 283.0699 0001661 031.4341 328.6880 14.14619099 98442
Epoch (UTC): 31 July 2015 14:31:06
Eccentricity: 0.0001661
inclination: 70.9994°
perigee height: 842 km
apogee height: 845 km
right ascension of ascending node: 283.0699°
argument of perigee: 31.4341°
revolutions per day: 14.14619099
mean anomaly at epoch: 328.6880°
orbit number at epoch: 9844

The dashed part of the orbit path shows where the satellite is in the earth's shadow,  

DLR